Location: Boston
(42.3580°N, 71.0600°W)
Time: 16:11:45
(UTC-04:00)

N. Korean satellite - Pass Details

Date: 13 October 2017
Orbit: 459 x 517 km, 97.2° (Epoch: 18 October)

Event Time Altitude Azimuth Distance (km) Brightness Sun altitude
Rises 19:46:57 0° 207° (SSW) 2,551 10.5 -19.6°
Reaches altitude 10° 19:49:47 10° 233° (SW) 1,663 9.9 -20.1°
Maximum altitude 19:51:50 15° 267° (W) 1,400 9.9 -20.5°
Drops below altitude 10° 19:53:51 10° 303° (WNW) 1,653 10.2 -20.9°
Sets 19:56:41 0° 328° (NNW) 2,526 10.8 -21.4°
